Regional Weather Roundup
Issued by NWS

Home | Current Version | Previous Version | Text Only | Print | Product List | Glossary On
Versions: 1 2 3 4 5 6 7 8 9 10 11 12 13 14 15 16 17 18 19 20 21 22 23 24 25 26 27 28 29 30 31 32 33 34 35 36 37 38 39 40 41 42 43 44 45 46 47 48 49 50
000
ASUS42 KKEY 290110
RWRKEY

FLORIDA REGIONAL WEATHER ROUNDUP FOR THE FLORIDA KEYS
NATIONAL WEATHER SERVICE KEY WEST FLORIDA
900 PM EDT THU MAY 28 2015

...SOUTH FLORIDA AND THE KEYS...

CITY           SKY/WX    TMP DP  RH WIND       PRES   REMARKS
FORT MYERS     CLOUDY    81  62  52 E12       30.05R
SW REGIONAL AP CLOUDY    80  61  52 E12       30.07R
NAPLES         PTCLDY    80  66  62 E12       30.05R
MIAMI          MOCLDY    80  64  58 E12       30.06S
WEST KENDALL   MOCLDY    78  64  61 E12       30.06R
HOMESTEAD      MOCLDY    78  64  62 NE10      30.05S
MARATHON       CLEAR     80  67  64 E13       30.03R
BOCA CHICA NAS PTCLDY    79  65  62 E15       30.02S
KEY WEST INTL  CLEAR     80  66  62 E13       30.03R

...INTERNATIONAL WEATHER...

CITY           SKY/WX    TMP DP  RH WIND       PRES   REMARKS
NASSAU BAHAMAS PTCLDY    77  63  61 E6        30.07R
CANCUN MEXICO  PTCLDY    82  72  69 E6        29.97R
COZUMEL MEXICO CLEAR     79  73  83 CALM      29.95R

ADJACENT COASTAL WATERS...

STATION/POSITION TIME  SKY/WX   TEMP    WIND        PRES    WAVE
                                AIR SEA DIR/SP/G            HT/PER
                 (UTC)          (F)     (DEG/KT/KT) (MB)    (FT/S)
PULASKI SHOAL LI 0000            81     100/ 14/ 16 1016.4R
SAND KEY         0050            80      90/ 18/ 20 1016.4R
SOMBRERO KEY     0100            80      80/ 19/ 20 1017.2R
LONG KEY         0000            80 82   80/ 15/ 17 1017.7S
MOLASSES REEF    0100            79 82   80/ 15/ 16 1017.2R
FOWEY ROCKS      NOT AVBL

$$



USA.gov is the U.S. government's official web portal to all federal, state and local government web resources and services.